www.pogodaiklimat.ru

Погода и климат >> Архив погоды >> Ирак >> Diwaniya


ПОГОДА в Diwaniya

  • Прогноз погоды в Diwaniya
  • Монитор погоды в Diwaniya
  • Климат города

АРХИВ ПОГОДЫ в Diwaniya

Время (UTC), дата Ветер
(напр.,м/с)
 
Видим.   Явления Облачность Т
(С)
Тd
(С)
f
(%)
Тe
(С)
Тes
(С)
Комфортность P
(гПа)
Po
(гПа)
Тmin
(С)
Tmax
(С)
R
(мм)
R24
(мм)
S
(см)
00 5.12 штиль 0 10 км ясно +9.6 +3.6 66 +9 +9 1022.6 1023.0
03 5.12 штиль 0 10 км ясно +7.6 +2.8 72 +7 +7 1022.4 1022.0
09 5.12 штиль 0 10 км ясно +21.8 +5.0 33 +22 +32 комфорт 1021.3 1021.0
15 5.12 СЗ 3 10 км ясно +19.9 +4.6 37 +21 +21 комфорт 1019.4 1019.0
12 6.12 ЮВ 6 10 км 10/0
[Ac trans Cs]
+23.0 +3.3 28 +23 +23 комфорт 1011.7 1012.0
00 7.12 штиль 0 10 км 10/0
[As op]
+13.2 +5.2 58 +13 +13 1013.2 1013.0
09 7.12 СЗ 5 10 км 3/1 1050 м
[Cu hum]
+16.8 +5.6 48 +16 +19 1016.4 1016.0
12 7.12 СЗ 7 10 км 4/4 1050 м
[Cu hum]
+17.4 +2.1 36 +16 +17 1016.4 1016.0
15 7.12 СЗ 5 8000 м пыль ясно +13.8 +4.4 53 +12 +12 1018.5 1019.0
18 7.12 С 3 1600 м пыль 9/0
[Cs]
+13.0 +1.2 45 +12 +12 1021.3 1021.0 +18.7
21 7.12 С 7 1200 м пыль ясно +11.8 -1.0 41 +9 +9 1022.6 1023.0
00 8.12 З 2 4000 м пыль ясно +8.6 -0.7 52 +7 +7 1023.3 1023.0
03 8.12 З 6 10 км ясно +6.2 -2.8 52 +2 +2 1024.0 1024.0
06 8.12 СЗ 3 10 км ясно +7.4 -3.6 46 +5 +7 1026.3 1026.0 +5.0
09 8.12 З 2 10 км ясно +13.6 -1.5 35 +13 +21 1026.3 1026.0
12 8.12 З 4 10 км ясно +16.0 -0.7 32 +15 +17 1025.7 1026.0
15 8.12 З 2 10 км ясно +12.4 +5.0 61 +12 +12 1026.3 1026.0
18 8.12 штиль 0 10 км ясно +9.2 +2.0 61 +9 +9 1027.3 1027.0 +17.2
21 8.12 СЗ 3 10 км ясно +7.2 +1.8 69 +5 +5 1027.4 1027.0
00 9.12 СЗ 3 10 км ясно +5.0 +1.1 76 +2 +2 1027.6 1028.0
03 9.12 З 2 10 км ясно +4.0 +1.4 83 +1 +1 1027.5 1028.0
09 9.12 СЗ 2 10 км ясно +15.0 +2.0 41 +15 +22 1027.6 1028.0
12 9.12 СЗ 5 10 км ясно +16.8 +1.4 35 +16 +18 1026.3 1026.0
15 9.12 СЗ 3 10 км ясно +13.0 +6.7 66 +12 +12 1026.9 1027.0
00 10.12 штиль 0 10 км ясно +5.8 +0.6 69 +5 +5 1027.3 1027.0
03 10.12 штиль 0 10 км ясно +4.5 -2.3 61 +4 +4 1027.3 1027.0
06 10.12 СЗ 1 10 км ясно +7.9 -1.1 53 +8 +11 1028.0 1028.0 +3.8
09 10.12 СЗ 1 10 км ясно +15.5 +3.4 44 +16 +25 1027.0 1027.0
12 10.12 СЗ 2 10 км ясно +18.0 +1.8 34 +19 +21 1024.5 1025.0
15 10.12 СЗ 2 10 км 4/0
[Ac trans]
+13.6 +5.5 58 +13 +13 1025.7 1026.0
18 10.12 штиль 0 10 км ясно +9.6 +3.6 66 +9 +9 1026.0 1026.0 +19.0
21 10.12 штиль 0 10 км 3/0
[Ac trans]
+7.8 +4.1 77 +7 +7 1026.0 1026.0
00 11.12 штиль 0 10 км ясно +5.8 +2.6 80 +5 +5 1025.5 1026.0
03 11.12 штиль 0 10 км ясно +5.8 +2.6 80 +5 +5 1025.5 1026.0
06 11.12 штиль 0 10 км 4/0
[Ci fib]
+9.4 +1.0 56 +9 +12 1026.9 1027.0 +4.0
09 11.12 штиль 0 10 км 4/0
[Ci fib]
+17.6 +3.9 40 +18 +27 1026.7 1027.0
12 11.12 штиль 0 10 км ясно +19.4 +2.8 33 +20 +23 1024.9 1025.0
15 11.12 штиль 0 10 км ясно +15.0 +4.1 48 +15 +15 1025.8 1026.0
18 11.12 СЗ 2 10 км ясно +11.4 +2.8 55 +11 +11 1026.3 1026.0 +21.0

 

Местоположение метеостанции Diwaniya (Ирак): широта 31.98 долгота 44.98 высота над уровнем моря 20 м.

В архиве по умолчанию представлена погода в Diwaniya за последнюю неделю. Архивные данные за месяц целиком и за предыдущие месяцы, начиная с января 2011 года, Вы можете получить, выбрав интересующий диапазон дат из раскрывающегося списка и нажав кнопку "Ввод!".

Внимание! Время в таблицах - всемирное. Для получения местного времени необходимо прибавить поправку, которая в Diwaniya равна 3 ч.

Смотрите также архив погоды в соседних городах и на ближайших метеорологических станциях:

Погода в Najaf (Ирак) (62 км)
Погода в Hella (Ирак) (72 км)
Погода в Samawah (Ирак) (80 км)
Погода в Ubaydah Bin Al Jarrah (Ирак) (92 км)
Погода в Kut-Al-Hai (Ирак) (103 км)
Погода в Azizyah (Ирак) (105 км)
Погода в Rifai (Ирак) (110 км)
Погода в Karbalaa (Ирак) (115 км)
Погода в Badrah (Ирак) (154 км)
Погода в Nasiriya (Ирак) (155 км)

Пояснения к столбцам:

Ветер - указаны скорость ветра в м/с - средняя за 10 мин, порывы в срок и между сроками (в фигурных скобках) и направление, откуда дует ветер: С - северный, СВ - северо-восточный, В - восточный, ЮВ - юго-восточный, Ю - южный, ЮЗ - юго-западный, З - западный, СЗ - северо-западный.
Видимость - горизонтальная дальность видимости в метрах или километрах. При видимости от 1 до 10 км при отсутствии осадков обычно наблюдается дымка, при ухудшении видимости до 1 км и менее - туман. В сухую погоду видимость может ухудшаться дымом, пылью или мглою.
Явления - указаны атмосферные явления, наблюдавшиеся в срок или в последний час перед сроком; фигурными скобками обозначены явления, наблюдавшиеся между сроками (за 1-3 часа до срока); квадратными скобками обозначены град или гололедные отложения с указанием их диаметра в мм.
Облачность - указаны через наклонную черту общая и нижняя облачность в баллах и высота нижней границы облаков в метрах; квадратными скобками обозначены формы облаков: Ci - перистые, Cs - перисто-слоистые, Cc - перисто-кучевые, Ac - высококучевые, As - высокослоистые, Sc - слоисто-кучевые, Ns - слоисто-дождевые, Cu - кучевые, Cb - кучево-дождевые. Подробнее классификацию облаков см. в Атласе облаков (PDF).
T - Температура воздуха - температура, измеренная на высоте 2 м над землей.
Td - Температура точки росы - температура, при понижении до которой содержащийся в воздухе водяной пар достигнет насыщения.
f - Относительная влажность воздуха - влажноcть воздуха, измеренная на высоте 2 м над землей.
Te - Эффективная температура - температура, которую ощущает одетый по сезону человек в тени. Характеристика душности погоды. При расчете учитывается влияние влажности воздуха и скорости ветра на теплоощущения человека.
Tes - Эффективная температура на солнце - температура, которую ощущает человек, с поправкой на солнечный нагрев. Характеристика знойности погоды. Зависит от высоты солнца над горизонтом, облачности и скорости ветра. Ночью, в пасмурную погоду, а также при ветре 12 м/с и более поправка равна нулю.
P - Атмосферное давление - приведенное к уровню моря атмосферное давление.
Po - Атмосферное давление - измеренное на уровне метеостанции атмосферное давление.
Tmin - Минимальная температура - минимум температуры воздуха на высоте 2 м над землей.
Tmax - Максимальная температура - максимум температуры воздуха на высоте 2 м над землей.
R - Количество осадков - Количество выпавших осадков за период времени, мм. При наведении курсора мыши на число - период времени, за который выпало указанное количество осадков.
R24 - Количество осадков - Количество выпавших осадков за 24 часа, мм.
S - Снежный покров - Высота снежного покрова, см. При наведении курсора мыши на число - состояние снежного покрова и степень покрытия местности в баллах.